KUIPER-00215

导读

KUIPER-00215是亚马逊柯伊伯(Kuiper)卫星互联网项目的卫星,于2026年2月12日由法国发射。柯伊伯计划旨在通过数千颗低轨卫星,为全球尤其是偏远地区提供高速低延迟、价格亲民的互联网接入,该卫星属于项目大规模部署阶段的组成部分。它运行在低轨轨道,将助力项目实现全球覆盖,服务家庭、企业及应急场景,还可与亚马逊云服务整合,构建“云+通信+边缘计算”一体化网络。

基本信息
目录编号:
67779
目录名称:
KUIPER-00215
国际标识:
2026-030R
轨道中心:
EARTH
卫星名称:
KUIPER-00215
卫星全名:
KUIPER-00215
卫星状态:
在轨 (已飞行211 天)
发射日期:
2026-02-12 UTC
国别 :
美国 (US)
星等 :
--
该卫星已列入 空间交会检测服务 Space Conjunction Data Service (SCDS) ,当前飞行风险评估等级: 无高风险
轨道信息
数据来源 国际轨道数据
星历时间: 2026-09-11T22:03:28+0800
6小时前
查看轨道信息
半长轴: 7007.7km
偏心率: 0.0000731
轨道倾角: 51.898°
近地点辐角 110.330°
升交点赤经 88.514°
平近点角 249.774°
近地点: 629.05km
远地点: 630.076km
周期: 97.302分钟
每日圈数: 14.799246
详细信息
使用方式:
暂无
2D轨道图
3D轨道图
轨道高度分析图
轨道倾角分析图
轨道综合分析图
查看轨道综合分析图
与全量物体交会距离演化趋势
与全量物体交会风险概率演化趋势